Time,TemperatureF,DewpointF,PressureIn,WindDirection,WindDirectionDegrees,WindSpeedMPH,WindSpeedGustMPH,Humidity,HourlyPrecipIn,Conditions,Clouds,dailyrainin,SoftwareType,DateUTC
2013-06-27 00:02:00,81.0,75.0,29.80,SE,136,2.0,6.0,81,0.00,,,0.00,,2013-06-27 05:02:00,
2013-06-27 00:12:00,81.0,75.0,29.80,SE,136,2.0,6.0,81,0.00,,,0.00,,2013-06-27 05:12:00,
2013-06-27 00:22:00,80.0,74.0,29.80,SE,139,2.0,4.0,82,0.00,,,0.00,,2013-06-27 05:22:00,
2013-06-27 00:32:00,80.0,74.0,29.80,South,171,3.0,6.0,82,0.00,,,0.00,,2013-06-27 05:32:00,
2013-06-27 00:42:00,80.0,74.0,29.80,South,171,3.0,6.0,82,0.00,,,0.00,,2013-06-27 05:42:00,
2013-06-27 00:53:00,80.0,74.0,29.80,South,179,3.0,7.0,82,0.00,,,0.00,,2013-06-27 05:53:00,
2013-06-27 01:01:00,79.0,73.0,29.80,South,172,2.0,4.0,83,0.00,,,0.00,,2013-06-27 06:01:00,
2013-06-27 01:12:00,79.0,73.0,29.80,South,172,2.0,4.0,83,0.00,,,0.00,,2013-06-27 06:12:00,
2013-06-27 01:22:00,79.0,73.0,29.80,SSE,160,2.0,4.0,83,0.00,,,0.00,,2013-06-27 06:22:00,
2013-06-27 01:34:00,79.0,74.0,29.80,SSE,156,2.0,5.0,84,0.00,,,0.00,,2013-06-27 06:34:00,
2013-06-27 01:43:00,79.0,74.0,29.80,SSE,156,2.0,5.0,84,0.00,,,0.00,,2013-06-27 06:43:00,
2013-06-27 01:53:00,78.0,73.0,29.80,South,180,2.0,3.0,85,0.00,,,0.00,,2013-06-27 06:53:00,
2013-06-27 02:02:00,78.0,73.0,29.80,SSE,153,0.0,4.0,86,0.00,,,0.00,,2013-06-27 07:02:00,
2013-06-27 02:12:00,78.0,73.0,29.80,SSE,153,0.0,4.0,86,0.00,,,0.00,,2013-06-27 07:12:00,
2013-06-27 02:22:00,78.0,73.0,29.80,SSW,202,2.0,5.0,86,0.00,,,0.00,,2013-06-27 07:22:00,
2013-06-27 02:33:00,78.0,73.0,29.80,SSE,167,3.0,5.0,86,0.00,,,0.00,,2013-06-27 07:33:00,
2013-06-27 02:42:00,78.0,73.0,29.80,SSE,167,3.0,5.0,86,0.00,,,0.00,,2013-06-27 07:42:00,
2013-06-27 02:52:00,78.0,73.0,29.80,SSW,207,2.0,4.0,86,0.00,,,0.00,,2013-06-27 07:52:00,
2013-06-27 03:01:00,77.0,72.0,29.80,SW,217,0.0,2.0,86,0.00,,,0.00,,2013-06-27 08:01:00,
2013-06-27 03:11:00,77.0,72.0,29.80,SW,217,0.0,2.0,86,0.00,,,0.00,,2013-06-27 08:11:00,
2013-06-27 03:22:00,77.0,73.0,29.80,South,191,0.0,2.0,87,0.00,,,0.00,,2013-06-27 08:22:00,
2013-06-27 03:34:00,77.0,73.0,29.80,SW,218,0.0,3.0,87,0.00,,,0.00,,2013-06-27 08:34:00,
2013-06-27 03:43:00,77.0,73.0,29.80,SW,218,0.0,3.0,87,0.00,,,0.00,,2013-06-27 08:43:00,
2013-06-27 03:52:00,76.0,72.0,29.80,SSE,160,2.0,4.0,87,0.00,,,0.00,,2013-06-27 08:52:00,
2013-06-27 04:02:00,76.0,72.0,29.80,South,181,1.0,4.0,86,0.00,,,0.00,,2013-06-27 09:02:00,
2013-06-27 04:11:00,76.0,72.0,29.80,South,181,1.0,4.0,86,0.00,,,0.00,,2013-06-27 09:11:00,
2013-06-27 04:22:00,76.0,72.0,29.80,South,188,0.0,3.0,86,0.00,,,0.00,,2013-06-27 09:22:00,
2013-06-27 04:34:00,76.0,72.0,29.80,SSW,200,2.0,4.0,86,0.00,,,0.00,,2013-06-27 09:34:00,
2013-06-27 04:43:00,76.0,72.0,29.80,SSW,200,2.0,4.0,86,0.00,,,0.00,,2013-06-27 09:43:00,
2013-06-27 04:53:00,76.0,72.0,29.80,South,190,2.0,6.0,87,0.00,,,0.00,,2013-06-27 09:53:00,
2013-06-27 05:01:00,76.0,72.0,29.80,SSW,201,3.0,6.0,86,0.00,,,0.00,,2013-06-27 10:01:00,
2013-06-27 05:11:00,76.0,72.0,29.80,SSW,201,3.0,6.0,86,0.00,,,0.00,,2013-06-27 10:11:00,
2013-06-27 05:22:00,76.0,71.0,29.80,SW,221,3.0,7.0,85,0.00,,,0.00,,2013-06-27 10:22:00,
2013-06-27 05:32:00,77.0,72.0,29.80,South,171,3.0,7.0,84,0.00,,,0.00,,2013-06-27 10:32:00,
2013-06-27 05:43:00,77.0,72.0,29.80,South,171,3.0,7.0,84,0.00,,,0.00,,2013-06-27 10:43:00,
2013-06-27 05:54:00,77.0,71.0,29.80,SSW,193,3.0,6.0,83,0.00,,,0.00,,2013-06-27 10:54:00,
2013-06-27 06:01:00,77.0,71.0,29.81,SSE,167,3.0,7.0,83,0.00,,,0.00,,2013-06-27 11:01:00,
2013-06-27 06:11:00,77.0,71.0,29.81,SSE,167,3.0,7.0,83,0.00,,,0.00,,2013-06-27 11:11:00,
2013-06-27 06:21:00,76.0,71.0,29.81,SSE,155,1.0,8.0,84,0.00,,,0.00,,2013-06-27 11:21:00,
2013-06-27 06:33:00,76.0,71.0,29.81,South,186,3.0,6.0,84,0.00,,,0.00,,2013-06-27 11:33:00,
2013-06-27 06:43:00,76.0,71.0,29.81,South,186,3.0,6.0,84,0.00,,,0.00,,2013-06-27 11:43:00,
2013-06-27 06:52:00,76.0,71.0,29.82,SSW,195,1.0,5.0,84,0.00,,,0.00,,2013-06-27 11:52:00,
2013-06-27 07:01:00,76.0,71.0,29.82,South,170,2.0,5.0,84,0.00,,,0.00,,2013-06-27 12:01:00,
2013-06-27 07:11:00,76.0,71.0,29.82,South,170,2.0,5.0,84,0.00,,,0.00,,2013-06-27 12:11:00,
2013-06-27 07:22:00,77.0,71.0,29.82,South,190,0.0,4.0,83,0.00,,,0.00,,2013-06-27 12:22:00,
2013-06-27 07:34:00,77.0,71.0,29.82,SSE,167,3.0,6.0,81,0.00,,,0.00,,2013-06-27 12:34:00,
2013-06-27 07:42:00,77.0,71.0,29.82,SSE,167,3.0,6.0,81,0.00,,,0.00,,2013-06-27 12:42:00,
2013-06-27 08:01:00,79.0,72.0,29.83,South,173,3.0,6.0,78,0.00,,,0.00,,2013-06-27 13:01:00,
2013-06-27 08:11:00,79.0,72.0,29.83,South,173,3.0,6.0,78,0.00,,,0.00,,2013-06-27 13:11:00,
2013-06-27 08:22:00,80.0,72.0,29.83,SSE,149,2.0,7.0,78,0.00,,,0.00,,2013-06-27 13:22:00,
2013-06-27 08:34:00,81.0,72.0,29.84,South,184,5.0,10.0,75,0.00,,,0.00,,2013-06-27 13:34:00,
2013-06-27 08:43:00,81.0,72.0,29.84,South,184,5.0,10.0,75,0.00,,,0.00,,2013-06-27 13:43:00,
2013-06-27 08:52:00,81.0,72.0,29.84,SSE,165,4.0,10.0,75,0.00,,,0.00,,2013-06-27 13:52:00,
2013-06-27 09:01:00,82.0,73.0,29.85,South,174,4.0,10.0,75,0.00,,,0.00,,2013-06-27 14:01:00,
2013-06-27 09:11:00,82.0,73.0,29.85,South,174,4.0,10.0,75,0.00,,,0.00,,2013-06-27 14:11:00,
2013-06-27 09:22:00,83.0,73.0,29.84,South,170,2.0,9.0,73,0.00,,,0.00,,2013-06-27 14:22:00,
2013-06-27 09:33:00,84.0,74.0,29.84,SSW,205,3.0,6.0,72,0.00,,,0.00,,2013-06-27 14:33:00,
2013-06-27 09:43:00,84.0,74.0,29.84,SSW,205,3.0,6.0,72,0.00,,,0.00,,2013-06-27 14:43:00,
2013-06-27 09:52:00,84.0,73.0,29.84,SSW,212,5.0,10.0,69,0.00,,,0.00,,2013-06-27 14:52:00,
2013-06-27 10:11:00,85.0,72.0,29.84,SSW,212,5.0,10.0,66,0.00,,,0.00,,2013-06-27 15:11:00,
2013-06-27 10:22:00,86.0,73.0,29.85,SSE,149,4.0,10.0,65,0.00,,,0.00,,2013-06-27 15:22:00,
2013-06-27 10:33:00,87.0,73.0,29.85,SW,228,3.0,11.0,64,0.00,,,0.00,,2013-06-27 15:33:00,
2013-06-27 10:42:00,87.0,73.0,29.85,SW,228,3.0,11.0,64,0.00,,,0.00,,2013-06-27 15:42:00,
2013-06-27 10:52:00,87.0,74.0,29.84,South,174,4.0,9.0,65,0.00,,,0.00,,2013-06-27 15:52:00,
2013-06-27 11:02:00,88.0,74.0,29.84,WSW,241,4.0,10.0,64,0.00,,,0.00,,2013-06-27 16:02:00,
2013-06-27 11:11:00,88.0,74.0,29.84,WSW,241,4.0,10.0,64,0.00,,,0.00,,2013-06-27 16:11:00,
2013-06-27 11:23:00,89.0,74.0,29.84,South,190,5.0,10.0,61,0.00,,,0.00,,2013-06-27 16:23:00,
2013-06-27 11:34:00,90.0,74.0,29.84,SSW,202,4.0,8.0,59,0.00,,,0.00,,2013-06-27 16:34:00,
2013-06-27 11:43:00,90.0,74.0,29.84,SSW,202,4.0,8.0,59,0.00,,,0.00,,2013-06-27 16:43:00,
2013-06-27 11:53:00,91.0,74.0,29.84,SSW,205,4.0,9.0,58,0.00,,,0.00,,2013-06-27 16:53:00,
2013-06-27 12:01:00,91.0,74.0,29.84,SW,214,5.0,10.0,58,0.00,,,0.00,,2013-06-27 17:01:00,
2013-06-27 12:11:00,91.0,74.0,29.84,SW,214,5.0,10.0,58,0.00,,,0.00,,2013-06-27 17:11:00,
2013-06-27 12:22:00,93.0,75.0,29.84,WSW,238,2.0,8.0,56,0.00,,,0.00,,2013-06-27 17:22:00,
2013-06-27 12:33:00,93.0,75.0,29.83,South,188,2.0,8.0,57,0.00,,,0.00,,2013-06-27 17:33:00,
2013-06-27 12:43:00,93.0,75.0,29.83,South,188,2.0,8.0,57,0.00,,,0.00,,2013-06-27 17:43:00,
2013-06-27 12:53:00,93.0,74.0,29.84,SW,222,3.0,10.0,55,0.00,,,0.00,,2013-06-27 17:53:00,
2013-06-27 13:01:00,94.0,74.0,29.83,South,171,5.0,8.0,53,0.00,,,0.00,,2013-06-27 18:01:00,
2013-06-27 13:11:00,94.0,74.0,29.83,South,171,5.0,8.0,53,0.00,,,0.00,,2013-06-27 18:11:00,
2013-06-27 13:22:00,96.0,77.0,29.83,WSW,251,2.0,6.0,54,0.00,,,0.00,,2013-06-27 18:22:00,
2013-06-27 13:32:00,96.0,76.0,29.83,South,186,1.0,8.0,53,0.00,,,0.00,,2013-06-27 18:32:00,
2013-06-27 13:44:00,96.0,76.0,29.83,South,186,1.0,8.0,53,0.00,,,0.00,,2013-06-27 18:44:00,
2013-06-27 13:52:00,96.0,76.0,29.83,SW,221,2.0,7.0,53,0.00,,,0.00,,2013-06-27 18:52:00,
2013-06-27 14:23:00,96.0,75.0,29.83,South,170,5.0,11.0,52,0.00,,,0.00,,2013-06-27 19:23:00,
2013-06-27 14:33:00,96.0,75.0,29.83,West,260,3.0,9.0,52,0.00,,,0.00,,2013-06-27 19:33:00,
2013-06-27 14:42:00,96.0,75.0,29.83,West,260,3.0,9.0,52,0.00,,,0.00,,2013-06-27 19:42:00,
2013-06-27 14:53:00,96.0,75.0,29.83,SW,219,4.0,8.0,52,0.00,,,0.00,,2013-06-27 19:53:00,
2013-06-27 15:01:00,97.0,76.0,29.82,SSE,160,4.0,10.0,51,0.00,,,0.00,,2013-06-27 20:01:00,
2013-06-27 15:11:00,97.0,76.0,29.82,SSE,160,4.0,10.0,51,0.00,,,0.00,,2013-06-27 20:11:00,
2013-06-27 15:22:00,97.0,75.0,29.82,South,186,5.0,10.0,50,0.00,,,0.00,,2013-06-27 20:22:00,
2013-06-27 15:36:00,98.0,76.0,29.82,SW,214,6.0,10.0,49,0.00,,,0.00,,2013-06-27 20:36:00,
2013-06-27 15:45:00,98.0,76.0,29.82,SW,214,6.0,10.0,49,0.00,,,0.00,,2013-06-27 20:45:00,
2013-06-27 15:55:00,98.0,76.0,29.81,South,171,5.0,9.0,50,0.00,,,0.00,,2013-06-27 20:55:00,
2013-06-27 16:03:00,99.0,76.0,29.81,South,172,6.0,10.0,48,0.00,,,0.00,,2013-06-27 21:03:00,
2013-06-27 16:13:00,99.0,76.0,29.81,South,172,6.0,10.0,48,0.00,,,0.00,,2013-06-27 21:13:00,
2013-06-27 16:24:00,98.0,75.0,29.80,SSE,156,6.0,11.0,48,0.00,,,0.00,,2013-06-27 21:24:00,
2013-06-27 16:34:00,98.0,76.0,29.80,SE,142,3.0,10.0,49,0.00,,,0.00,,2013-06-27 21:34:00,
2013-06-27 16:45:00,98.0,76.0,29.80,SE,142,3.0,10.0,49,0.00,,,0.00,,2013-06-27 21:45:00,
2013-06-27 16:55:00,98.0,75.0,29.80,South,187,3.0,8.0,48,0.00,,,0.00,,2013-06-27 21:55:00,
2013-06-27 17:13:00,97.0,75.0,29.79,SSE,164,6.0,9.0,50,0.00,,,0.00,,2013-06-27 22:13:00,
2013-06-27 17:22:00,97.0,75.0,29.78,SE,134,4.0,10.0,50,0.00,,,0.00,,2013-06-27 22:22:00,
2013-06-27 17:33:00,97.0,76.0,29.78,SE,142,2.0,7.0,51,0.00,,,0.00,,2013-06-27 22:33:00,
2013-06-27 17:47:00,97.0,76.0,29.78,SE,142,2.0,7.0,51,0.00,,,0.00,,2013-06-27 22:47:00,
2013-06-27 17:57:00,97.0,76.0,29.77,SE,135,2.0,6.0,51,0.00,,,0.00,,2013-06-27 22:57:00,
2013-06-27 18:03:00,97.0,76.0,29.75,South,176,3.0,9.0,52,0.00,,,0.00,,2013-06-27 23:03:00,
2013-06-27 18:15:00,97.0,76.0,29.75,South,176,3.0,9.0,52,0.00,,,0.00,,2013-06-27 23:15:00,
2013-06-27 18:25:00,96.0,77.0,29.74,West,266,3.0,6.0,55,0.00,,,0.00,,2013-06-27 23:25:00,
2013-06-27 18:34:00,95.0,78.0,29.72,SSW,210,5.0,7.0,58,0.00,,,0.00,,2013-06-27 23:34:00,
2013-06-27 18:44:00,95.0,78.0,29.72,SSW,210,5.0,7.0,58,0.00,,,0.00,,2013-06-27 23:44:00,
2013-06-27 18:58:00,95.0,78.0,29.73,SE,127,5.0,9.0,58,0.00,,,0.00,,2013-06-27 23:58:00,
2013-06-27 19:04:00,95.0,77.0,29.74,SSE,163,3.0,9.0,57,0.00,,,0.00,,2013-06-28 00:04:00,
2013-06-27 19:13:00,95.0,77.0,29.74,SSE,163,3.0,9.0,57,0.00,,,0.00,,2013-06-28 00:13:00,
2013-06-27 19:26:00,95.0,77.0,29.75,SSE,160,2.0,5.0,57,0.00,,,0.00,,2013-06-28 00:26:00,
2013-06-27 19:34:00,94.0,77.0,29.75,South,187,2.0,6.0,58,0.00,,,0.00,,2013-06-28 00:34:00,
2013-06-27 19:56:00,93.0,77.0,29.76,SSE,167,3.0,5.0,60,0.00,,,0.00,,2013-06-28 00:56:00,
2013-06-27 20:04:00,91.0,76.0,29.77,SSW,194,2.0,4.0,61,0.00,,,0.00,,2013-06-28 01:04:00,
2013-06-27 20:13:00,91.0,76.0,29.77,SSW,194,2.0,4.0,61,0.00,,,0.00,,2013-06-28 01:13:00,
2013-06-27 20:45:00,89.0,76.0,29.78,SSW,210,1.0,2.0,65,0.00,,,0.00,,2013-06-28 01:45:00,
2013-06-27 21:04:00,87.0,75.0,29.79,SSW,194,1.0,2.0,68,0.00,,,0.00,,2013-06-28 02:04:00,
2013-06-27 21:35:00,86.0,76.0,29.90,NE,52,2.0,5.0,72,0.00,,,0.00,,2013-06-28 02:35:00,
2013-06-27 21:57:00,82.0,65.0,29.91,North,8,11.0,31.0,57,0.00,,,0.00,,2013-06-28 02:57:00,
2013-06-27 22:04:00,80.0,67.0,29.94,NNE,15,9.0,16.0,65,0.00,,,0.00,,2013-06-28 03:04:00,
2013-06-27 22:14:00,80.0,67.0,29.94,NNE,15,9.0,16.0,65,0.00,,,0.00,,2013-06-28 03:14:00,
2013-06-27 22:36:00,77.0,66.0,29.93,NNE,32,5.0,10.0,69,0.00,,,0.00,,2013-06-28 03:36:00,
2013-06-27 22:44:00,77.0,66.0,29.93,NNE,32,5.0,10.0,69,0.00,,,0.00,,2013-06-28 03:44:00,
2013-06-27 22:56:00,77.0,66.0,29.91,NW,325,5.0,8.0,68,0.00,,,0.00,,2013-06-28 03:56:00,
2013-06-27 23:02:00,78.0,65.0,29.90,NW,325,6.0,11.0,65,0.00,,,0.00,,2013-06-28 04:02:00,
2013-06-27 23:11:00,78.0,65.0,29.90,NW,325,6.0,11.0,65,0.00,,,0.00,,2013-06-28 04:11:00,
2013-06-27 23:22:00,79.0,64.0,29.89,West,278,6.0,13.0,61,0.00,,,0.00,,2013-06-28 04:22:00,
2013-06-27 23:33:00,80.0,64.0,29.88,West,277,4.0,13.0,58,0.00,,,0.00,,2013-06-28 04:33:00,
2013-06-27 23:43:00,80.0,64.0,29.88,West,277,4.0,13.0,58,0.00,,,0.00,,2013-06-28 04:43:00,
2013-06-27 23:53:00,80.0,64.0,29.86,West,279,3.0,6.0,58,0.00,,,0.00,,2013-06-28 04:53:00,